Date,TemperatureHighF,TemperatureAvgF,TemperatureLowF,DewpointHighF,DewpointAvgF,DewpointLowF,HumidityHigh,HumidityAvg,HumidityLow,PressureMaxIn,PressureMinIn,WindSpeedMaxMPH,WindSpeedAvgMPH,GustSpeedMaxMPH,PrecipitationSumIn
2013-3-1,33.0,28.3,25.0,27.0,24.6,22.0,95,86,76,29.91,29.81,40,20,53,0.00
2013-3-2,33.0,27.5,22.0,26.0,22.9,17.0,96,83,58,29.88,29.81,38,21,48,0.00
2013-3-3,26.0,20.9,17.0,18.0,14.0,11.0,86,74,62,29.92,29.82,38,27,53,0.00
2013-3-4,42.0,30.6,19.0,27.0,16.1,12.0,81,57,33,30.11,29.92,37,19,44,0.00
2013-3-5,46.0,42.1,35.0,46.0,36.3,23.0,99,82,49,30.07,29.66,40,28,47,0.42
2013-3-6,34.0,25.2,22.0,31.0,21.2,16.0,96,85,70,30.04,29.66,51,30,69,0.36
2013-3-7,40.0,30.6,22.0,27.0,20.6,-12.0,96,72,10,30.22,30.03,38,23,51,0.00
2013-3-8,45.0,40.0,34.0,21.0,-2.2,-43.0,41,21,2,30.30,30.19,43,21,46,0.00
2013-3-9,51.0,44.7,36.0,27.0,20.5,5.0,56,39,18,30.35,30.27,17,6,17,0.00
2013-3-10,52.0,48.4,43.0,34.0,29.9,25.0,63,49,42,30.32,30.23,32,12,35,0.00
2013-3-11,53.0,46.3,42.0,49.0,44.1,33.0,99,93,54,30.23,29.91,35,27,42,0.63
2013-3-12,50.0,44.4,35.0,50.0,36.4,20.0,100,76,41,30.01,29.81,35,22,41,1.30
2013-3-13,41.0,34.7,24.0,28.0,21.1,16.0,76,58,37,30.11,30.00,33,18,42,0.01
2013-3-14,40.0,28.7,19.0,16.0,11.2,2.0,78,51,24,30.26,30.08,44,20,59,0.00
2013-3-15,60.0,44.7,32.0,40.0,26.5,5.0,72,50,28,30.17,30.01,32,20,43,0.00
2013-3-16,66.0,57.7,52.0,44.0,41.0,39.0,63,54,42,30.01,29.88,38,26,50,0.00
2013-3-17,62.0,56.7,40.0,47.0,43.3,39.0,97,62,48,30.10,29.98,31,18,46,0.00
2013-3-18,49.0,38.7,32.0,46.0,38.2,32.0,100,98,80,30.10,29.90,38,11,43,0.74
2013-3-19,51.0,44.0,35.0,44.0,27.8,9.0,98,58,26,30.09,29.87,40,21,48,0.30
2013-3-20,44.0,37.1,31.0,24.0,8.6,-2.0,72,30,23,30.10,29.83,30,18,36,0.01
2013-3-21,31.0,24.2,17.0,27.0,12.7,6.0,95,63,43,29.89,29.75,35,20,46,0.00
2013-3-22,40.0,29.6,22.0,27.0,14.7,9.0,62,53,44,30.01,29.89,24,14,27,0.00
2013-3-23,44.0,40.6,36.0,42.0,35.2,23.0,98,82,57,30.02,29.91,22,12,25,0.02
2013-3-24,43.0,35.6,32.0,42.0,35.2,32.0,99,98,80,29.95,29.56,34,15,40,0.87
2013-3-25,34.0,29.2,26.0,34.0,22.8,17.0,99,78,61,29.87,29.54,26,16,35,0.07
2013-3-26,31.0,26.1,22.0,23.0,20.4,18.0,90,79,66,30.14,29.83,35,22,48,0.00
2013-3-27,40.0,29.6,24.0,23.0,21.3,18.0,89,72,50,30.23,30.11,33,20,46,0.00
2013-3-28,44.0,34.3,27.0,22.0,18.1,14.0,75,54,29,30.29,30.19,29,20,39,0.00
2013-3-29,48.0,41.0,36.0,36.0,23.5,15.0,83,51,35,30.35,30.25,22,12,26,0.00
2013-3-30,53.0,46.8,41.0,42.0,36.9,32.0,88,69,53,30.25,30.13,22,12,28,0.04
2013-3-31,55.0,49.3,45.0,51.0,46.4,-99.9,99,94,60,30.13,29.91,33,23,40,0.34